Waarnemingen

Advertentie
Mijn weer
Lahr, Duitsland (10805): temperatuur & dauwpunt: 23.03.2017 20:00:00 - 29.03.2017 20:00:00 (CEST)Lahr, Duitsland (10805): temperatuur 5cm & temperatuur -5cm: 23.03.2017 20:00:00 - 29.03.2017 20:00:00 (CEST)Lahr, Duitsland (10805): temperatuur -20cm & temperatuur -100cm: 23.03.2017 20:00:00 - 29.03.2017 20:00:00 (CEST)Lahr, Duitsland (10805): windsnelheid & windstoten: 23.03.2017 20:00:00 - 29.03.2017 20:00:00 (CEST)Lahr, Duitsland (10805): windrichting: 23.03.2017 20:00:00 - 29.03.2017 20:00:00 (CEST)Lahr, Duitsland (10805): luchtdruk: 23.03.2017 20:00:00 - 29.03.2017 20:00:00 (CEST)Lahr, Duitsland (10805): zicht: 23.03.2017 20:00:00 - 29.03.2017 20:00:00 (CEST)Lahr, Duitsland (10805): Zonneschijnduur: 23.03.2017 20:00:00 - 29.03.2017 20:00:00 (CEST)Lahr, Duitsland (10805): neerslag: 23.03.2017 20:00:00 - 29.03.2017 20:00:00 (CEST)
Datum & Tijd tt [°C] td [°C] tt 5cm [°C] tt -5cm [°C] tt -20cm [°C] tt -100cm [°C] ff [km/u] ff [kn] fx [km/u] fx [kn] dd ppp [hPa] vv [km] sd [min] rr [mm]
29.03.2017 20:00:00 15,6 7,7 12,1 16,7 14,1 8,8 7 4 18 10 NO 1025,6 70 20 0,0
29.03.2017 19:00:00 17,8 7,6 16,7 19,1 14,0 8,8 13 7 18 10 NNO 1025,2 70 60 0,0
29.03.2017 18:00:00 20,4 6,3 21,3 21,1 13,6 8,8 5 3 12 6 OZO 1024,8 70 60 0,0
29.03.2017 17:00:00 19,7 5,8 22,4 22,2 13,1 8,8 7 4 20 11 N 1025,4 52 60 0,0
29.03.2017 16:00:00 19,8 6,0 23,1 22,6 12,4 8,8 5 3 16 9 NO 1025,9 60 60 0,0
29.03.2017 15:00:00 19,1 5,9 23,0 21,7 11,8 8,8 6 3 14 8 N 1026,6 46 52 0,0
29.03.2017 14:00:00 18,3 6,6 22,0 20,2 11,1 8,8 8 4 16 8 - 1027,4 10 46 0,0
29.03.2017 13:00:00 17,9 6,1 22,3 19,0 10,5 8,8 8 5 18 10 ZZW 1028,1 60 60 0,0
29.03.2017 12:00:00 17,4 7,7 20,5 16,2 10,1 8,8 11 6 16 9 Z 1028,6 44 60 0,0
29.03.2017 11:00:00 15,4 7,7 18,0 13,4 9,8 8,8 11 6 19 10 ZZW 1028,7 29 60 0,0
29.03.2017 10:00:00 13,4 7,5 15,1 10,9 9,8 8,8 13 7 18 10 Z 1028,5 34 60 0,0
29.03.2017 09:00:00 12,0 7,8 12,5 8,8 10,0 8,8 5 3 11 6 ZZW 1028,5 40 60 0,0
29.03.2017 08:00:00 9,0 7,1 7,2 7,3 10,3 8,7 7 4 11 6 ZZW 1028,3 27 12 0,0
29.03.2017 07:00:00 7,4 6,4 3,5 7,6 10,5 8,7 3 2 4 2 ZZW 1028,0 28 0 0,0
29.03.2017 06:00:00 7,8 6,8 3,9 8,3 10,8 8,7 2 1 4 2 ONO 1027,8 24 0 0,0
29.03.2017 05:00:00 8,9 6,9 5,6 9,2 11,0 8,7 1 1 9 5 WZW 1027,4 33 0 0,0
29.03.2017 04:00:00 10,2 7,8 7,5 10,1 11,2 8,7 5 3 10 5 O 1027,3 32 0 0,0
29.03.2017 03:00:00 10,6 8,0 9,7 10,3 11,4 8,7 8 5 10 5 WZW 1027,3 37 0 0,0
29.03.2017 02:00:00 11,3 7,9 9,6 10,5 11,7 8,7 4 2 6 4 ZZO 1027,1 28 0 0,0
29.03.2017 01:00:00 11,3 7,8 7,7 10,9 11,9 8,7 3 2 8 4 ZZO 1026,8 32 0 0,0
29.03.2017 00:00:00 12,6 8,2 9,8 11,6 12,1 8,7 4 2 11 6 ONO 1026,1 44 0 0,0
28.03.2017 23:00:00 13,1 8,0 10,6 12,5 12,3 8,7 1 1 8 4 OZO 1025,4 38 0 0,0
28.03.2017 22:00:00 15,3 7,2 12,8 13,2 12,5 8,7 5 3 6 4 ZZO 1024,7 47 0 0,0
28.03.2017 21:00:00 16,7 6,8 13,8 14,0 12,6 8,7 4 2 11 6 OZO 1023,8 69 0 0,0
28.03.2017 20:00:00 18,3 6,2 15,4 15,4 12,6 8,7 8 4 22 12 NW 1022,9 70 6 0,0
28.03.2017 19:00:00 19,3 7,5 17,7 17,0 12,5 8,7 9 5 17 9 WZW 1022,4 70 9 0,0
28.03.2017 18:00:00 20,7 6,0 20,1 18,6 12,1 8,7 13 7 16 9 ZW 1022,0 10 37 0,0
28.03.2017 17:00:00 20,5 7,1 20,8 19,3 11,6 8,7 8 5 32 17 WZW 1022,2 65 38 0,0
28.03.2017 16:00:00 21,2 5,6 23,1 20,4 10,9 8,7 16 9 31 17 ZZW 1022,2 37 60 0,0
28.03.2017 15:00:00 20,9 5,5 22,9 19,9 10,2 8,7 16 9 27 15 ZZW 1022,7 36 60 0,0
28.03.2017 14:00:00 19,8 5,6 22,4 18,6 9,5 8,7 13 7 23 12 ZZW 1023,4 29 60 0,0
28.03.2017 13:00:00 18,6 6,2 20,8 16,5 8,9 8,7 15 8 26 14 ZZW 1023,9 35 60 0,0
28.03.2017 12:00:00 17,4 6,3 19,2 15,0 8,4 8,7 17 9 27 15 Z 1024,1 29 60 0,0
28.03.2017 11:00:00 14,7 6,5 17,0 13,0 8,0 8,6 10 5 19 11 ZW 1024,3 28 60 0,0
28.03.2017 10:00:00 11,7 5,2 13,4 9,7 7,9 8,6 7 4 13 7 ZZW 1024,3 27 60 0,0
28.03.2017 09:00:00 10,3 5,2 10,3 6,1 8,0 8,6 5 3 8 4 Z 1024,1 32 60 0,0
28.03.2017 08:00:00 5,7 3,9 2,6 4,2 8,3 8,6 5 3 13 7 Z 1024,4 23 7 0,0
28.03.2017 07:00:00 4,9 3,0 1,6 4,4 8,6 8,6 3 1 14 7 ZW 1024,1 27 0 0,0
28.03.2017 06:00:00 6,0 4,0 2,4 4,5 8,9 8,6 6 4 11 6 Z 1023,7 33 0 0,0
28.03.2017 05:00:00 5,2 4,0 2,0 4,9 9,2 8,6 6 3 11 6 W 1023,5 26 0 0,0
28.03.2017 04:00:00 5,3 3,4 2,3 5,4 9,5 8,6 5 3 7 4 Z 1023,3 32 0 0,0
28.03.2017 03:00:00 5,3 3,4 2,7 5,8 9,9 8,6 4 2 8 4 ZZW 1023,4 33 0 0,0
28.03.2017 02:00:00 5,8 4,0 3,0 6,3 10,2 8,6 2 1 12 7 N 1023,3 36 0 0,0
28.03.2017 01:00:00 7,4 4,6 2,8 7,0 10,6 8,6 3 2 6 3 Z 1023,0 40 0 0,0
28.03.2017 00:00:00 6,8 4,6 3,7 7,8 11,0 8,6 3 2 6 4 NW 1022,7 28 0 0,0
27.03.2017 23:00:00 7,8 4,7 4,7 8,7 11,4 8,6 5 3 7 4 N 1022,4 31 0 0,0
27.03.2017 22:00:00 9,8 4,6 5,5 9,9 11,7 8,6 2 1 5 3 ZZW 1022,1 39 0 0,0
27.03.2017 21:00:00 13,6 4,8 8,6 11,4 11,9 8,6 5 3 6 3 O 1021,3 10 0 0,0
27.03.2017 20:00:00 14,3 4,4 9,6 13,4 12,0 8,6 6 3 9 5 N 1020,9 46 33 0,0
27.03.2017 19:00:00 16,9 5,4 15,3 15,5 11,8 8,6 8 4 12 7 NNO 1020,5 62 60 0,0
27.03.2017 18:00:00 17,9 3,5 18,0 17,4 11,4 8,6 8 4 14 8 NNO 1020,5 54 60 0,0
27.03.2017 17:00:00 17,8 3,3 19,1 18,7 10,9 8,6 8 4 16 9 N 1020,9 10 60 0,0
27.03.2017 16:00:00 17,1 2,6 19,3 19,2 10,3 8,6 8 4 17 9 NNO 1021,6 34 60 0,0
27.03.2017 15:00:00 15,4 1,5 18,6 18,8 9,5 8,6 9 5 20 11 N 1022,1 28 60 0,0
27.03.2017 14:00:00 14,8 2,4 18,1 18,1 8,8 8,6 9 5 20 11 NNO 1022,7 29 60 0,0
27.03.2017 13:00:00 14,0 0,6 17,4 16,8 8,0 8,6 12 6 17 9 NNO 1022,9 28 60 0,0
27.03.2017 12:00:00 13,1 0,1 17,7 14,8 7,4 8,6 8 4 16 9 WNW 1022,8 34 60 0,0
27.03.2017 11:00:00 11,9 -1,5 14,6 11,6 7,1 8,6 8 4 19 11 ZO 1022,8 42 60 0,0
27.03.2017 10:00:00 9,9 0,0 12,3 8,1 7,0 8,6 5 3 13 7 WNW 1023,1 55 60 0,0
27.03.2017 09:00:00 9,1 -2,2 8,7 4,6 7,2 8,6 8 4 27 15 ONO 1023,1 42 60 0,0
27.03.2017 08:00:00 7,3 -2,9 5,2 2,8 7,4 8,6 19 10 29 16 O 1022,6 26 9 0,0
27.03.2017 07:00:00 4,4 -1,1 0,1 2,7 7,8 8,6 3 2 10 5 O 1022,7 52 0 0,0
27.03.2017 06:00:00 5,4 -0,5 -0,2 3,2 8,1 8,6 4 2 7 4 NW 1022,1 53 0 0,0
27.03.2017 05:00:00 6,4 -1,0 1,3 4,0 8,3 8,6 4 2 20 11 NW 1022,1 70 0 0,0
27.03.2017 04:00:00 9,4 -1,1 6,9 4,7 8,6 8,6 18 10 32 17 OZO 1021,8 70 0 0,0
27.03.2017 03:00:00 8,8 -0,2 4,0 5,2 8,9 8,6 6 3 23 12 NO 1022,0 64 0 0,0
27.03.2017 02:00:00 9,5 1,4 6,8 5,5 9,2 8,6 10 6 22 12 ONO 1022,3 49 0 0,0
27.03.2017 01:00:00 10,6 2,2 5,4 6,0 9,5 8,6 3 2 11 6 WZW 1022,4 41 0 0,0
27.03.2017 00:00:00 9,1 2,6 5,0 6,6 9,8 8,6 4 2 21 11 W 1022,5 41 0 0,0
26.03.2017 23:00:00 10,3 3,4 7,4 7,1 10,2 8,6 9 5 16 9 O 1022,1 40 0 0,0
26.03.2017 22:00:00 7,8 3,7 3,8 8,0 10,5 8,6 3 2 8 4 NNO 1022,0 30 0 0,0
26.03.2017 21:00:00 9,3 2,9 6,1 9,2 10,7 8,6 8 5 9 5 N 1021,6 26 0 0,0
26.03.2017 20:00:00 11,8 3,5 7,5 10,8 10,8 8,6 8 5 23 12 NNO 1021,0 37 27 0,0
26.03.2017 19:00:00 14,4 4,2 13,1 12,8 10,8 8,6 15 8 27 14 N 1020,3 31 60 0,0
26.03.2017 18:00:00 15,3 3,5 15,2 14,7 10,5 8,6 20 11 28 15 N 1020,5 22 60 0,0
26.03.2017 17:00:00 15,5 3,0 16,8 16,2 10,1 8,6 16 9 28 15 N 1020,5 23 60 0,0
26.03.2017 16:00:00 15,4 3,5 17,5 16,9 9,5 8,6 18 10 28 15 N 1020,7 20 60 0,0
26.03.2017 15:00:00 15,2 3,7 17,7 17,0 8,9 8,6 16 8 25 13 N 1020,9 17 60 0,0
26.03.2017 14:00:00 13,5 2,0 16,5 16,4 8,2 8,6 15 8 27 15 N 1021,7 16 59 0,0
26.03.2017 13:00:00 13,0 3,3 16,2 15,3 7,6 8,6 13 7 21 12 NNO 1022,1 18 60 0,0
26.03.2017 12:00:00 11,1 3,2 14,0 13,0 7,1 8,6 16 8 20 11 N 1022,2 22 60 0,0
26.03.2017 11:00:00 9,0 2,1 12,3 10,8 6,8 8,6 6 4 11 6 NNO 1022,2 26 60 0,0
26.03.2017 10:00:00 7,2 2,1 9,1 7,1 6,7 8,6 9 5 14 7 NNO 1022,7 28 60 0,0
26.03.2017 09:00:00 5,0 1,6 5,7 3,7 6,9 8,6 6 4 10 6 NNW 1022,3 36 60 0,0
26.03.2017 08:00:00 2,9 0,8 0,0 2,1 7,2 8,6 7 4 11 6 N 1022,1 23 4 0,0
26.03.2017 07:00:00 2,1 1,2 -0,3 2,4 7,5 8,6 5 3 6 3 NO 1021,5 18 0 0,0
26.03.2017 06:00:00 2,7 1,2 0,0 2,9 7,8 8,6 4 2 7 4 ONO 1021,1 25 0 0,0
26.03.2017 05:00:00 3,6 1,2 0,0 3,4 8,1 8,6 5 3 7 4 ONO 1020,5 32 0 0,0
26.03.2017 04:00:00 4,9 1,4 0,9 3,9 8,4 8,6 2 1 13 7 ZO 1020,2 33 0 0,0
26.03.2017 03:00:00 6,2 1,0 1,9 4,5 8,7 8,6 2 1 8 4 NNW 1020,2 41 0 0,0
26.03.2017 02:00:00 7,2 1,1 2,7 5,1 9,0 8,6 3 2 17 9 ZO 1019,6 53 0 0,0
26.03.2017 01:00:00 7,8 1,5 5,2 5,6 9,3 8,6 5 3 18 10 ONO 1019,5 58 0 0,0
26.03.2017 00:00:00 7,9 2,1 5,5 6,3 9,7 8,6 9 5 22 12 ONO 1019,6 40 0 0,0
25.03.2017 23:00:00 10,2 1,8 7,7 7,1 10,0 8,6 18 10 21 11 N 1019,1 46 0 0,0
25.03.2017 22:00:00 11,2 2,5 8,4 8,0 10,3 8,5 16 9 26 14 NO 1018,8 35 0 0,0
25.03.2017 21:00:00 12,8 2,6 10,4 9,0 10,5 8,5 18 10 31 17 NNO 1018,4 35 0 0,0
25.03.2017 20:00:00 14,4 2,7 11,9 10,6 10,5 8,5 21 11 28 15 NO 1017,8 33 28 0,0
25.03.2017 19:00:00 16,6 3,3 14,5 12,6 10,5 8,5 16 8 33 18 ONO 1017,6 38 60 0,0
25.03.2017 18:00:00 18,3 2,4 17,3 14,1 10,2 8,5 15 8 37 20 ONO 1017,6 37 60 0,0
25.03.2017 17:00:00 18,8 1,7 18,4 15,2 9,8 8,5 26 14 39 21 ONO 1017,8 38 60 0,0
25.03.2017 16:00:00 18,1 4,6 19,1 16,3 9,4 8,5 22 12 41 22 NNO 1018,6 29 60 0,0
25.03.2017 15:00:00 16,9 5,2 18,2 15,7 8,8 8,5 29 16 38 20 N 1019,6 17 60 0,0
25.03.2017 14:00:00 15,8 5,9 17,5 15,3 8,3 8,5 25 13 36 20 NNO 1020,7 14 60 0,0
25.03.2017 13:00:00 13,2 5,3 15,5 14,3 7,7 8,5 27 14 37 20 N 1021,8 12 60 0,0
25.03.2017 12:00:00 11,3 5,9 13,6 12,5 7,3 8,5 24 13 32 18 NNO 1023,0 25 60 0,0
25.03.2017 11:00:00 9,5 5,7 11,7 10,2 7,0 8,5 20 11 26 14 NNO 1023,8 9 60 0,0
25.03.2017 10:00:00 7,5 5,4 8,5 7,0 7,0 8,5 19 10 26 14 NNO 1024,3 6 59 0,0
25.03.2017 09:00:00 5,3 4,2 5,1 4,0 7,2 8,5 11 6 14 8 N 1024,8 4,5 38 0,0
25.03.2017 08:00:00 3,8 3,3 1,4 2,9 7,4 8,5 8 5 12 6 NNO 1025,0 3,8 0 0,0
25.03.2017 07:00:00 4,2 3,8 1,1 3,2 7,7 8,5 5 3 14 7 N 1024,8 4,6 0 0,0
25.03.2017 06:00:00 3,9 3,4 2,3 3,7 8,0 8,5 11 6 15 8 NNO 1024,9 4,2 0 0,0
25.03.2017 05:00:00 4,0 3,5 1,3 4,3 8,2 8,5 6 3 17 9 N 1025,3 4,2 0 0,0
25.03.2017 04:00:00 4,3 3,7 3,1 4,8 8,5 8,5 16 8 21 11 NNO 1025,8 4,4 0 0,0
25.03.2017 03:00:00 5,0 4,3 3,5 5,4 8,7 8,5 13 7 19 10 N 1026,2 4,5 0 0,0
25.03.2017 02:00:00 6,6 5,2 5,4 5,9 8,9 8,5 17 9 22 12 N 1026,1 5 0 0,0
25.03.2017 01:00:00 7,0 5,7 5,2 6,4 9,1 8,5 10 6 15 8 N 1026,3 7 0 0,0
25.03.2017 00:00:00 7,4 5,9 6,0 6,9 9,3 8,5 11 6 24 13 NO 1026,7 6 0 0,0
24.03.2017 23:00:00 8,1 6,0 7,0 7,2 9,6 8,5 16 9 23 13 N 1026,4 7 0 0,0
24.03.2017 22:00:00 8,5 6,1 7,2 7,7 9,8 8,5 11 6 15 8 NNW 1025,7 8 0 0,0
24.03.2017 21:00:00 7,4 5,4 5,4 8,4 10,0 8,5 7 4 15 8 NNW 1025,5 8 0 0,0
24.03.2017 20:00:00 10,0 6,8 8,4 9,6 10,1 8,5 13 7 21 11 NNO 1024,9 9 0 0,0
24.03.2017 19:00:00 11,1 7,6 10,4 10,9 10,1 8,5 15 8 24 13 NNO 1024,5 10 0 0,0
24.03.2017 18:00:00 12,0 7,7 11,8 11,9 10,0 8,5 19 10 25 14 N 1024,1 11 0 0,0
24.03.2017 17:00:00 12,4 7,3 12,6 12,7 9,7 8,5 21 12 29 16 NNO 1023,8 12 0 0,0
24.03.2017 16:00:00 13,0 7,8 13,7 13,4 9,4 8,5 23 13 29 16 NNO 1023,5 13 5 0,0
24.03.2017 15:00:00 13,1 7,9 14,7 13,7 9,1 8,5 21 11 31 17 N 1023,6 14 7 0,0
24.03.2017 14:00:00 12,3 7,6 13,5 12,5 8,8 8,4 21 11 26 14 N 1023,6 7 0 0,0
24.03.2017 13:00:00 11,5 7,6 12,7 11,9 8,5 8,4 20 11 27 15 N 1023,9 11 0 0,0
24.03.2017 12:00:00 10,9 7,4 12,0 10,8 8,3 8,4 18 10 23 12 NNO 1023,2 12 0 0,0
24.03.2017 11:00:00 9,2 7,3 10,0 9,4 8,2 8,4 16 9 21 11 NNO 1022,8 9 0 0,0
24.03.2017 10:00:00 7,9 6,8 8,2 7,9 8,3 8,4 8 4 16 9 NNO 1022,6 4,5 0 0,0
24.03.2017 09:00:00 6,7 6,2 6,5 6,8 8,3 8,4 10 5 12 6 NO 1021,5 6 0 0,0
24.03.2017 08:00:00 6,9 6,1 6,4 6,4 8,5 8,4 5 3 9 5 NW 1022,0 8 0 0,0
24.03.2017 07:00:00 6,2 5,9 5,5 6,0 8,7 8,4 9 5 11 6 N 1021,1 7 0 0,0
24.03.2017 06:00:00 5,7 5,4 4,0 6,1 8,9 8,4 3 2 6 3 N 1020,9 6 0 0,0
24.03.2017 05:00:00 6,7 6,1 4,9 6,3 9,1 8,4 3 2 8 5 ZO 1020,5 8 0 0,0
24.03.2017 04:00:00 6,4 5,7 4,4 6,3 9,3 8,4 3 2 8 4 NNW 1020,6 8 0 0,0
24.03.2017 03:00:00 7,0 6,1 4,7 6,5 9,6 8,4 6 4 8 4 NNO 1019,9 10 0 0,0
24.03.2017 02:00:00 7,0 5,2 3,4 7,0 9,9 8,4 5 3 11 6 NW 1018,6 11 0 0,0
24.03.2017 01:00:00 8,2 6,8 6,2 7,6 10,1 8,4 8 4 12 6 NNO 1016,8 11 0 0,0
24.03.2017 00:00:00 9,9 7,3 6,8 8,4 10,4 8,4 5 3 13 7 N 1015,8 16 0 0,0
23.03.2017 23:00:00 10,9 7,8 8,0 9,1 10,6 8,4 6 3 20 11 NW 1015,0 19 0 0,0
23.03.2017 22:00:00 11,8 7,9 10,3 9,8 10,9 8,4 19 10 27 14 N 1014,1 23 0 0,0
23.03.2017 21:00:00 11,9 8,2 10,7 10,6 11,0 8,4 22 12 28 15 NNO 1013,4 22 0 0,0
23.03.2017 20:00:00 - - - - - - - - - - - - - - -

tt = temperatuur
td = dauwpunt
tt 5cm = temperatuur 5cm
tt -5cm = temperatuur -5cm
tt -20cm = temperatuur -20cm
tt -100cm = temperatuur -100cm
ff = windsnelheid
fx = windstoten
dd = windrichting
ppp = luchtdruk
vv = zicht
sd = Zonneschijnduur
rr = neerslag

Weerstations in de omgeving